BTK6142 WIII-WAAA

Flight info

Callsign BTK6142
Flight time 1h 54m
Altitude 37000
Route CA T5 BIMAK
Aircraft A320/M-SDE3FGHIRWY/LB1

Departure

Time 2026-04-28 09:57
Airport Soekarno-Hatta International Airport (WIII)

Arrival

Time 2026-04-28 11:52
Airport Sultan Hasanuddin International Airport (WAAA)
Time Latitude Longitude Altitude Speed Heading
2026-04-28 09:36 -6.11995 106.65497 38 ft 0 kts 197°
2026-04-28 09:45 -6.11984 106.65501 38 ft 3 kts 198°
2026-04-28 09:45 -6.11962 106.65508 38 ft 3 kts 200°
2026-04-28 09:45 -6.11941 106.65516 35 ft 3 kts 199°
2026-04-28 09:46 -6.11921 106.65524 37 ft 3 kts 216°
2026-04-28 09:46 -6.11906 106.65539 35 ft 3 kts 247°
2026-04-28 09:46 -6.11901 106.65558 34 ft 1 kts 264°
2026-04-28 09:46 -6.11901 106.65562 34 ft 0 kts 264°
2026-04-28 09:51 -6.11904 106.65534 35 ft 8 kts 260°
2026-04-28 09:52 -6.11933 106.65452 36 ft 16 kts 249°
2026-04-28 09:52 -6.11943 106.65352 36 ft 14 kts 300°
2026-04-28 09:52 -6.11883 106.65273 38 ft 15 kts 310°
2026-04-28 09:52 -6.11793 106.65217 38 ft 16 kts 328°
2026-04-28 09:53 -6.11793 106.65120 38 ft 15 kts 249°
2026-04-28 09:53 -6.11830 106.65028 36 ft 14 kts 248°
2026-04-28 09:53 -6.11873 106.64921 38 ft 19 kts 248°
2026-04-28 09:53 -6.11926 106.64788 38 ft 21 kts 249°
2026-04-28 09:54 -6.11980 106.64650 39 ft 21 kts 248°
2026-04-28 09:54 -6.12035 106.64510 38 ft 22 kts 248°
2026-04-28 09:54 -6.12091 106.64366 37 ft 23 kts 249°
2026-04-28 09:54 -6.12149 106.64217 37 ft 24 kts 249°
2026-04-28 09:55 -6.12213 106.64064 38 ft 22 kts 247°
2026-04-28 09:55 -6.12248 106.63975 39 ft 7 kts 252°
2026-04-28 09:55 -6.12249 106.63933 39 ft 5 kts 285°
2026-04-28 09:55 -6.12230 106.63904 39 ft 7 kts 317°
2026-04-28 09:56 -6.12164 106.63888 38 ft 13 kts
2026-04-28 09:56 -6.12074 106.63954 38 ft 18 kts 57°
2026-04-28 09:56 -6.11940 106.64266 35 ft 83 kts 68°
2026-04-28 09:56 -6.11651 106.64994 38 ft 139 kts 68°
2026-04-28 09:57 -6.11226 106.66029 141 ft 173 kts 65°
2026-04-28 09:57 -6.10793 106.67171 715 ft 177 kts 68°
2026-04-28 09:57 -6.10343 106.68337 1336 ft 179 kts 65°
2026-04-28 09:57 -6.09641 106.69369 1931 ft 185 kts 48°
2026-04-28 09:58 -6.08678 106.70336 2193 ft 207 kts 44°
2026-04-28 09:58 -6.07570 106.71377 2481 ft 230 kts 44°
2026-04-28 09:58 -6.06342 106.72543 2872 ft 254 kts 45°
2026-04-28 09:58 -6.05042 106.73809 3542 ft 264 kts 46°
2026-04-28 09:59 -6.03730 106.75118 4380 ft 268 kts 46°
2026-04-28 09:59 -6.02516 106.76545 5132 ft 271 kts 60°
2026-04-28 09:59 -6.01903 106.78354 5979 ft 273 kts 85°
2026-04-28 09:59 -6.02008 106.80241 6741 ft 275 kts 97°
2026-04-28 10:00 -6.02255 106.82182 7524 ft 279 kts 97°
2026-04-28 10:00 -6.02508 106.84119 8302 ft 281 kts 97°
2026-04-28 10:00 -6.02763 106.86079 9065 ft 285 kts 97°
2026-04-28 10:00 -6.03017 106.88063 9806 ft 288 kts 97°
2026-04-28 10:01 -6.03272 106.90086 10343 ft 299 kts 97°
2026-04-28 10:01 -6.03419 106.92243 10509 ft 322 kts 89°
2026-04-28 10:01 -6.03369 106.94570 10705 ft 341 kts 88°
2026-04-28 10:01 -6.03267 106.96977 11195 ft 349 kts 87°
2026-04-28 10:02 -6.03146 106.99427 11807 ft 353 kts 87°
2026-04-28 10:02 -6.03235 107.01892 12402 ft 356 kts 97°
2026-04-28 10:02 -6.03550 107.04367 13012 ft 359 kts 97°
2026-04-28 10:02 -6.03873 107.06867 13606 ft 363 kts 97°
2026-04-28 10:03 -6.04032 107.08104 13868 ft 367 kts 97°
2026-04-28 10:03 -6.04525 107.11935 14666 ft 369 kts 97°
2026-04-28 10:03 -6.04853 107.14507 15177 ft 373 kts 97°
2026-04-28 10:03 -6.05185 107.17101 15696 ft 375 kts 97°
2026-04-28 10:04 -6.05521 107.19709 16199 ft 378 kts 98°
2026-04-28 10:04 -6.05864 107.22343 16693 ft 382 kts 98°
2026-04-28 10:04 -6.06208 107.24998 17182 ft 385 kts 98°
2026-04-28 10:04 -6.06553 107.27662 17682 ft 387 kts 98°
2026-04-28 10:05 -6.06906 107.30363 18144 ft 391 kts 98°
2026-04-28 10:05 -6.07261 107.33077 18538 ft 394 kts 98°
2026-04-28 10:05 -6.07616 107.35814 18948 ft 396 kts 98°
2026-04-28 10:05 -6.07972 107.38566 19359 ft 398 kts 98°
2026-04-28 10:06 -6.08329 107.41336 19761 ft 400 kts 98°
2026-04-28 10:06 -6.08686 107.44109 20157 ft 403 kts 98°
2026-04-28 10:06 -6.09048 107.46911 20574 ft 405 kts 98°
2026-04-28 10:06 -6.09388 107.49736 20981 ft 407 kts 98°
2026-04-28 10:07 -6.09754 107.52585 21383 ft 409 kts 98°
2026-04-28 10:07 -6.10117 107.55430 21779 ft 411 kts 98°
2026-04-28 10:07 -6.10480 107.58279 22158 ft 413 kts 98°
2026-04-28 10:07 -6.10846 107.61152 22559 ft 415 kts 99°
2026-04-28 10:08 -6.11215 107.64027 22939 ft 417 kts 99°
2026-04-28 10:08 -6.11589 107.66928 23313 ft 419 kts 99°
2026-04-28 10:08 -6.11965 107.69834 23630 ft 421 kts 99°
2026-04-28 10:08 -6.12334 107.72723 23925 ft 423 kts 99°
2026-04-28 10:09 -6.12708 107.75654 24064 ft 415 kts 98°
2026-04-28 10:09 -6.13080 107.78559 24172 ft 423 kts 98°
2026-04-28 10:09 -6.13459 107.81510 24365 ft 429 kts 98°
2026-04-28 10:09 -6.13842 107.84494 24630 ft 431 kts 98°
2026-04-28 10:10 -6.14225 107.87490 24908 ft 434 kts 98°
2026-04-28 10:10 -6.14607 107.90500 25196 ft 436 kts 98°
2026-04-28 10:10 -6.14991 107.93533 25478 ft 438 kts 98°
2026-04-28 10:10 -6.15377 107.96567 25756 ft 439 kts 98°
2026-04-28 10:11 -6.15766 107.99618 26049 ft 441 kts 97°
2026-04-28 10:11 -6.16156 108.02674 26329 ft 442 kts 97°
2026-04-28 10:11 -6.16546 108.05753 26625 ft 443 kts 97°
2026-04-28 10:11 -6.16933 108.08824 26903 ft 445 kts 97°
2026-04-28 10:12 -6.17323 108.11917 27171 ft 447 kts 97°
2026-04-28 10:12 -6.17715 108.15021 27451 ft 449 kts 97°
2026-04-28 10:12 -6.18111 108.18145 27707 ft 451 kts 97°
2026-04-28 10:12 -6.18509 108.21274 27960 ft 453 kts 97°
2026-04-28 10:13 -6.18910 108.24419 28221 ft 454 kts 97°
2026-04-28 10:13 -6.19313 108.27572 28460 ft 456 kts 97°
2026-04-28 10:13 -6.19718 108.30728 28692 ft 458 kts 97°
2026-04-28 10:13 -6.20127 108.33918 28924 ft 460 kts 97°
2026-04-28 10:14 -6.20534 108.37107 29152 ft 461 kts 96°
2026-04-28 10:14 -6.20937 108.40302 29379 ft 463 kts 96°
2026-04-28 10:14 -6.21341 108.43515 29605 ft 465 kts 96°
2026-04-28 10:14 -6.21747 108.46743 29810 ft 467 kts 96°
2026-04-28 10:15 -6.22160 108.50001 30005 ft 469 kts 96°
2026-04-28 10:15 -6.22571 108.53242 30237 ft 469 kts 96°
2026-04-28 10:15 -6.22981 108.56494 30526 ft 468 kts 96°
2026-04-28 10:15 -6.23254 108.58677 30712 ft 467 kts 96°
2026-04-28 10:16 -6.23792 108.62970 31082 ft 466 kts 96°
2026-04-28 10:16 -6.24197 108.66189 31351 ft 466 kts 96°
2026-04-28 10:16 -6.24472 108.68374 31552 ft 465 kts 96°
2026-04-28 10:16 -6.24878 108.71595 31836 ft 464 kts 96°
2026-04-28 10:17 -6.25283 108.74819 32123 ft 464 kts 96°
2026-04-28 10:17 -6.25689 108.78028 32424 ft 463 kts 97°
2026-04-28 10:17 -6.26095 108.81233 32754 ft 461 kts 97°
2026-04-28 10:17 -6.26500 108.84420 33097 ft 459 kts 97°
2026-04-28 10:18 -6.26899 108.87594 33425 ft 458 kts 97°
2026-04-28 10:18 -6.27296 108.90764 33735 ft 457 kts 97°
2026-04-28 10:18 -6.27692 108.93928 34019 ft 456 kts 97°
2026-04-28 10:18 -6.28086 108.97087 34279 ft 455 kts 97°
2026-04-28 10:19 -6.28480 109.00236 34521 ft 455 kts 97°
2026-04-28 10:19 -6.28876 109.03389 34756 ft 454 kts 97°
2026-04-28 10:19 -6.29276 109.06581 34982 ft 454 kts 97°
2026-04-28 10:19 -6.29664 109.09692 35199 ft 454 kts 97°
2026-04-28 10:20 -6.30057 109.12831 35414 ft 454 kts 97°
2026-04-28 10:20 -6.30452 109.15985 35619 ft 454 kts 97°
2026-04-28 10:20 -6.30845 109.19142 35826 ft 454 kts 97°
2026-04-28 10:20 -6.31240 109.22322 36041 ft 454 kts 97°
2026-04-28 10:21 -6.31636 109.25472 36246 ft 453 kts 97°
2026-04-28 10:21 -6.32028 109.28576 36439 ft 453 kts 97°
2026-04-28 10:21 -6.32420 109.31710 36658 ft 453 kts 97°
2026-04-28 10:21 -6.32809 109.34853 36800 ft 453 kts 97°
2026-04-28 10:22 -6.33592 109.41183 36835 ft 453 kts 97°
2026-04-28 10:22 -6.34373 109.47475 36835 ft 454 kts 97°
2026-04-28 10:23 -6.35163 109.53759 36829 ft 453 kts 97°
2026-04-28 10:23 -6.35955 109.60055 36830 ft 453 kts 97°
2026-04-28 10:24 -6.36730 109.66327 36833 ft 453 kts 97°
2026-04-28 10:24 -6.37501 109.72621 36836 ft 453 kts 97°
2026-04-28 10:25 -6.38278 109.78907 36837 ft 453 kts 97°
2026-04-28 10:25 -6.39060 109.85203 36834 ft 453 kts 97°
2026-04-28 10:26 -6.39841 109.91483 36834 ft 453 kts 97°
2026-04-28 10:26 -6.40619 109.97729 36834 ft 453 kts 97°
2026-04-28 10:27 -6.41394 110.04023 36829 ft 453 kts 96°
2026-04-28 10:27 -6.42163 110.10308 36828 ft 453 kts 96°
2026-04-28 10:28 -6.42939 110.16639 36820 ft 453 kts 96°
2026-04-28 10:29 -6.44097 110.26063 36824 ft 453 kts 96°
2026-04-28 10:29 -6.44875 110.32341 36824 ft 453 kts 96°
2026-04-28 10:30 -6.45456 110.38635 36828 ft 452 kts 88°
2026-04-28 10:30 -6.44744 110.44897 36825 ft 451 kts 82°
2026-04-28 10:31 -6.43903 110.51141 36828 ft 451 kts 82°
2026-04-28 10:31 -6.43070 110.57378 36832 ft 450 kts 82°
2026-04-28 10:32 -6.42242 110.63610 36835 ft 450 kts 82°
2026-04-28 10:32 -6.41415 110.69860 36835 ft 450 kts 82°
2026-04-28 10:33 -6.40588 110.76084 36837 ft 450 kts 82°
2026-04-28 10:33 -6.39762 110.82304 36840 ft 449 kts 82°
2026-04-28 10:34 -6.38926 110.88533 36839 ft 450 kts 82°
2026-04-28 10:34 -6.38084 110.94767 36838 ft 450 kts 82°
2026-04-28 10:35 -6.37253 111.00993 36840 ft 450 kts 82°
2026-04-28 10:35 -6.36420 111.07226 36839 ft 450 kts 82°
2026-04-28 10:36 -6.35578 111.13504 36842 ft 450 kts 82°
2026-04-28 10:36 -6.34744 111.19728 36842 ft 450 kts 82°
2026-04-28 10:37 -6.33913 111.25921 36842 ft 450 kts 82°
2026-04-28 10:37 -6.33070 111.32195 36843 ft 450 kts 82°
2026-04-28 10:38 -6.32235 111.38427 36844 ft 450 kts 82°
2026-04-28 10:38 -6.31397 111.44651 36848 ft 450 kts 82°
2026-04-28 10:39 -6.30551 111.50885 36852 ft 450 kts 82°
2026-04-28 10:39 -6.29708 111.57102 36851 ft 450 kts 82°
2026-04-28 10:40 -6.28863 111.63342 36855 ft 450 kts 82°
2026-04-28 10:40 -6.28027 111.69579 36856 ft 450 kts 82°
2026-04-28 10:41 -6.27443 111.73901 36856 ft 450 kts 82°
2026-04-28 10:41 -6.26337 111.82051 36853 ft 450 kts 82°
2026-04-28 10:42 -6.25489 111.88282 36861 ft 450 kts 82°
2026-04-28 10:42 -6.24643 111.94504 36865 ft 449 kts 82°
2026-04-28 10:43 -6.23798 112.00724 36867 ft 449 kts 82°
2026-04-28 10:43 -6.22979 112.06738 36865 ft 449 kts 82°
2026-04-28 10:44 -6.22112 112.13155 36861 ft 449 kts 82°
2026-04-28 10:44 -6.21264 112.19372 36866 ft 448 kts 82°
2026-04-28 10:45 -6.20408 112.25570 36869 ft 448 kts 82°
2026-04-28 10:45 -6.19569 112.31758 36867 ft 447 kts 82°
2026-04-28 10:46 -6.18731 112.37941 36871 ft 447 kts 82°
2026-04-28 10:46 -6.17882 112.44124 36869 ft 446 kts 82°
2026-04-28 10:47 -6.17030 112.50308 36863 ft 447 kts 82°
2026-04-28 10:47 -6.16178 112.56537 36863 ft 447 kts 82°
2026-04-28 10:48 -6.15334 112.62722 36864 ft 447 kts 82°
2026-04-28 10:48 -6.14489 112.68903 36861 ft 447 kts 82°
2026-04-28 10:49 -6.13779 112.74048 36862 ft 447 kts 82°
2026-04-28 10:49 -6.12791 112.81244 36859 ft 447 kts 82°
2026-04-28 10:50 -6.11935 112.87469 36860 ft 447 kts 82°
2026-04-28 10:50 -6.11224 112.92613 36858 ft 448 kts 82°
2026-04-28 10:51 -6.10369 112.98817 36857 ft 448 kts 82°
2026-04-28 10:51 -6.09516 113.05017 36862 ft 448 kts 82°
2026-04-28 10:52 -6.08663 113.11214 36869 ft 448 kts 82°
2026-04-28 10:52 -6.07809 113.17430 36865 ft 449 kts 82°
2026-04-28 10:53 -6.06957 113.23646 36866 ft 449 kts 82°
2026-04-28 10:53 -6.06096 113.29857 36865 ft 449 kts 82°
2026-04-28 10:54 -6.05231 113.36079 36871 ft 450 kts 82°
2026-04-28 10:54 -6.04370 113.42296 36873 ft 450 kts 82°
2026-04-28 10:55 -6.03501 113.48525 36872 ft 450 kts 82°
2026-04-28 10:55 -6.02641 113.54748 36872 ft 450 kts 82°
2026-04-28 10:56 -6.01776 113.60981 36872 ft 450 kts 82°
2026-04-28 10:56 -6.00893 113.67252 36874 ft 450 kts 82°
2026-04-28 10:57 -6.00032 113.73441 36875 ft 451 kts 82°
2026-04-28 10:57 -5.99168 113.79675 36876 ft 451 kts 82°
2026-04-28 10:58 -5.98294 113.85957 36879 ft 450 kts 82°
2026-04-28 10:58 -5.97429 113.92179 36878 ft 450 kts 82°
2026-04-28 10:59 -5.96559 113.98413 36883 ft 450 kts 82°
2026-04-28 10:59 -5.95686 114.04642 36880 ft 450 kts 82°
2026-04-28 11:00 -5.94816 114.10862 36882 ft 450 kts 82°
2026-04-28 11:00 -5.93949 114.17093 36885 ft 450 kts 82°
2026-04-28 11:01 -5.93082 114.23322 36881 ft 450 kts 82°
2026-04-28 11:01 -5.92201 114.29543 36882 ft 450 kts 82°
2026-04-28 11:02 -5.91322 114.35763 36881 ft 450 kts 82°
2026-04-28 11:02 -5.90445 114.41986 36884 ft 450 kts 82°
2026-04-28 11:03 -5.89574 114.48196 36886 ft 450 kts 82°
2026-04-28 11:03 -5.88703 114.54418 36883 ft 449 kts 82°
2026-04-28 11:04 -5.87827 114.60634 36889 ft 449 kts 82°
2026-04-28 11:04 -5.86953 114.66822 36895 ft 447 kts 82°
2026-04-28 11:05 -5.86074 114.73007 36887 ft 447 kts 82°
2026-04-28 11:05 -5.85205 114.79185 36886 ft 446 kts 82°
2026-04-28 11:06 -5.84346 114.85332 36893 ft 446 kts 82°
2026-04-28 11:06 -5.83467 114.91504 36890 ft 446 kts 82°
2026-04-28 11:07 -5.82593 114.97668 36887 ft 445 kts 82°
2026-04-28 11:07 -5.81723 115.03862 36884 ft 445 kts 82°
2026-04-28 11:08 -5.80852 115.10024 36885 ft 445 kts 82°
2026-04-28 11:08 -5.79973 115.16188 36886 ft 446 kts 82°
2026-04-28 11:09 -5.79098 115.22348 36885 ft 445 kts 82°
2026-04-28 11:09 -5.78231 115.28504 36884 ft 445 kts 82°
2026-04-28 11:10 -5.77359 115.34658 36877 ft 445 kts 82°
2026-04-28 11:10 -5.76481 115.40806 36871 ft 445 kts 82°
2026-04-28 11:11 -5.75602 115.46957 36874 ft 445 kts 82°
2026-04-28 11:11 -5.74726 115.53112 36874 ft 445 kts 82°
2026-04-28 11:12 -5.73841 115.59270 36873 ft 446 kts 82°
2026-04-28 11:12 -5.72970 115.65427 36878 ft 446 kts 82°
2026-04-28 11:13 -5.72095 115.71598 36877 ft 446 kts 82°
2026-04-28 11:13 -5.71213 115.77774 36880 ft 447 kts 82°
2026-04-28 11:14 -5.70324 115.83943 36883 ft 447 kts 82°
2026-04-28 11:14 -5.69431 115.90160 36888 ft 447 kts 82°
2026-04-28 11:15 -5.68547 115.96336 36890 ft 447 kts 82°
2026-04-28 11:15 -5.67661 116.02516 36892 ft 447 kts 82°
2026-04-28 11:16 -5.66787 116.08632 36890 ft 446 kts 82°
2026-04-28 11:16 -5.65891 116.14844 36887 ft 446 kts 82°
2026-04-28 11:17 -5.65012 116.20995 36887 ft 446 kts 82°
2026-04-28 11:17 -5.64120 116.27167 36889 ft 446 kts 82°
2026-04-28 11:18 -5.63227 116.33334 36885 ft 446 kts 82°
2026-04-28 11:18 -5.62339 116.39504 36882 ft 447 kts 82°
2026-04-28 11:19 -5.61451 116.45679 36882 ft 447 kts 82°
2026-04-28 11:19 -5.60561 116.51849 36884 ft 447 kts 82°
2026-04-28 11:20 -5.59670 116.58026 36892 ft 447 kts 83°
2026-04-28 11:20 -5.58781 116.64203 36892 ft 447 kts 83°
2026-04-28 11:21 -5.57888 116.70378 36891 ft 447 kts 82°
2026-04-28 11:21 -5.56990 116.76572 36890 ft 447 kts 83°
2026-04-28 11:22 -5.56099 116.82748 36888 ft 447 kts 83°
2026-04-28 11:22 -5.55209 116.88925 36888 ft 447 kts 83°
2026-04-28 11:23 -5.54314 116.95076 36898 ft 446 kts 82°
2026-04-28 11:23 -5.53409 117.01249 36900 ft 446 kts 83°
2026-04-28 11:24 -5.52514 117.07409 36898 ft 446 kts 83°
2026-04-28 11:24 -5.51839 117.12519 36898 ft 445 kts 84°
2026-04-28 11:25 -5.50972 117.19745 36900 ft 445 kts 84°
2026-04-28 11:25 -5.50357 117.24872 36901 ft 445 kts 84°
2026-04-28 11:26 -5.49587 117.31022 36900 ft 444 kts 83°
2026-04-28 11:26 -5.48809 117.37171 36713 ft 444 kts 84°
2026-04-28 11:26 -5.48421 117.40259 36457 ft 444 kts 84°
2026-04-28 11:27 -5.48040 117.43329 36215 ft 444 kts 83°
2026-04-28 11:27 -5.47657 117.46403 35974 ft 445 kts 83°
2026-04-28 11:27 -5.47270 117.49494 35737 ft 446 kts 83°
2026-04-28 11:27 -5.46880 117.52585 35494 ft 447 kts 83°
2026-04-28 11:28 -5.46488 117.55689 35252 ft 448 kts 83°
2026-04-28 11:28 -5.46095 117.58800 34473 ft 453 kts 83°
2026-04-28 11:28 -5.45699 117.61956 33565 ft 458 kts 83°
2026-04-28 11:28 -5.45299 117.65142 32514 ft 464 kts 83°
2026-04-28 11:29 -5.44898 117.68369 31487 ft 468 kts 83°
2026-04-28 11:29 -5.44496 117.71592 30531 ft 462 kts 83°
2026-04-28 11:29 -5.44099 117.74738 29972 ft 449 kts 82°
2026-04-28 11:29 -5.43709 117.77826 29260 ft 443 kts 82°
2026-04-28 11:30 -5.43324 117.80878 28638 ft 438 kts 82°
2026-04-28 11:30 -5.42564 117.86893 27404 ft 430 kts 82°
2026-04-28 11:30 -5.42189 117.89859 26798 ft 427 kts 82°
2026-04-28 11:31 -5.41817 117.92797 26198 ft 423 kts 82°
2026-04-28 11:31 -5.41447 117.95722 25604 ft 420 kts 82°
2026-04-28 11:31 -5.41082 117.98624 25015 ft 418 kts 83°
2026-04-28 11:31 -5.40720 118.01501 24439 ft 415 kts 83°
2026-04-28 11:32 -5.40361 118.04362 23877 ft 412 kts 83°
2026-04-28 11:32 -5.40002 118.07210 23321 ft 409 kts 83°
2026-04-28 11:32 -5.39645 118.10017 22747 ft 405 kts 83°
2026-04-28 11:32 -5.39301 118.12744 22457 ft 401 kts 83°
2026-04-28 11:33 -5.38947 118.15577 22113 ft 399 kts 83°
2026-04-28 11:33 -5.38606 118.18330 21784 ft 398 kts 83°
2026-04-28 11:33 -5.38264 118.21074 21443 ft 396 kts 83°
2026-04-28 11:33 -5.37921 118.23814 21116 ft 394 kts 83°
2026-04-28 11:34 -5.37579 118.26536 20792 ft 392 kts 83°
2026-04-28 11:34 -5.37239 118.29241 20459 ft 390 kts 83°
2026-04-28 11:34 -5.36904 118.31931 20131 ft 388 kts 83°
2026-04-28 11:34 -5.36570 118.34619 19804 ft 387 kts 83°
2026-04-28 11:35 -5.36238 118.37293 19478 ft 385 kts 83°
2026-04-28 11:35 -5.35905 118.39951 19158 ft 383 kts 83°
2026-04-28 11:35 -5.35570 118.42596 18833 ft 381 kts 83°
2026-04-28 11:35 -5.35236 118.45226 18512 ft 380 kts 83°
2026-04-28 11:36 -5.34906 118.47851 18192 ft 378 kts 83°
2026-04-28 11:36 -5.34579 118.50465 17841 ft 376 kts 83°
2026-04-28 11:36 -5.34255 118.53062 17528 ft 375 kts 83°
2026-04-28 11:36 -5.33931 118.55649 17213 ft 374 kts 83°
2026-04-28 11:37 -5.33606 118.58237 16888 ft 372 kts 83°
2026-04-28 11:37 -5.33282 118.60811 16582 ft 371 kts 83°
2026-04-28 11:37 -5.32959 118.63373 16270 ft 370 kts 83°
2026-04-28 11:37 -5.32639 118.65925 15959 ft 368 kts 83°
2026-04-28 11:38 -5.32319 118.68468 15652 ft 367 kts 83°
2026-04-28 11:38 -5.32001 118.70999 15339 ft 366 kts 83°
2026-04-28 11:38 -5.31684 118.73528 15032 ft 364 kts 83°
2026-04-28 11:38 -5.31367 118.76048 14723 ft 363 kts 83°
2026-04-28 11:39 -5.31052 118.78554 14421 ft 362 kts 83°
2026-04-28 11:39 -5.30738 118.81058 14118 ft 361 kts 83°
2026-04-28 11:39 -5.30425 118.83545 13814 ft 359 kts 83°
2026-04-28 11:39 -5.30110 118.86032 13488 ft 358 kts 83°
2026-04-28 11:40 -5.29797 118.88506 13185 ft 357 kts 83°
2026-04-28 11:40 -5.29510 118.90973 12879 ft 355 kts 87°
2026-04-28 11:40 -5.29474 118.93449 12232 ft 359 kts 90°
2026-04-28 11:40 -5.29465 118.95985 11314 ft 368 kts 90°
2026-04-28 11:41 -5.29458 118.98559 10797 ft 365 kts 90°
2026-04-28 11:41 -5.29453 119.01050 10661 ft 347 kts 90°
2026-04-28 11:41 -5.29447 119.03374 10531 ft 320 kts 90°
2026-04-28 11:41 -5.29438 119.05545 10235 ft 305 kts 90°
2026-04-28 11:42 -5.29429 119.07641 9793 ft 296 kts 90°
2026-04-28 11:42 -5.29420 119.09713 9651 ft 294 kts 90°
2026-04-28 11:42 -5.29413 119.11778 9362 ft 295 kts 90°
2026-04-28 11:42 -5.29407 119.13826 9008 ft 293 kts 90°
2026-04-28 11:43 -5.29400 119.15857 8654 ft 290 kts 90°
2026-04-28 11:43 -5.29396 119.17872 8307 ft 288 kts 90°
2026-04-28 11:43 -5.29390 119.19881 7961 ft 287 kts 89°
2026-04-28 11:43 -5.29382 119.21846 7622 ft 285 kts 89°
2026-04-28 11:44 -5.29372 119.23821 7280 ft 283 kts 89°
2026-04-28 11:44 -5.29363 119.25796 6936 ft 282 kts 89°
2026-04-28 11:44 -5.29354 119.27748 6606 ft 278 kts 89°
2026-04-28 11:44 -5.29347 119.29682 6269 ft 275 kts 89°
2026-04-28 11:45 -5.29338 119.31589 5924 ft 272 kts 89°
2026-04-28 11:45 -5.29330 119.33472 5597 ft 268 kts 89°
2026-04-28 11:45 -5.29323 119.35330 5275 ft 264 kts 89°
2026-04-28 11:45 -5.29318 119.37157 4957 ft 251 kts 89°
2026-04-28 11:46 -5.29313 119.38863 4666 ft 240 kts 89°
2026-04-28 11:46 -5.29305 119.40525 4376 ft 236 kts 88°
2026-04-28 11:46 -5.29025 119.42117 4089 ft 233 kts 66°
2026-04-28 11:46 -5.28112 119.43409 3995 ft 222 kts 41°
2026-04-28 11:47 -5.26844 119.44249 3804 ft 217 kts 30°
2026-04-28 11:47 -5.25550 119.44991 3553 ft 217 kts 30°
2026-04-28 11:47 -5.24235 119.45747 3278 ft 213 kts 30°
2026-04-28 11:47 -5.22971 119.46476 3019 ft 208 kts 30°
2026-04-28 11:48 -5.21731 119.47192 2746 ft 204 kts 30°
2026-04-28 11:48 -5.20510 119.47895 2513 ft 198 kts 30°
2026-04-28 11:48 -5.19355 119.48562 2247 ft 186 kts 30°
2026-04-28 11:48 -5.18268 119.49188 2010 ft 174 kts 30°
2026-04-28 11:49 -5.17250 119.49776 1805 ft 164 kts 31°
2026-04-28 11:49 -5.16283 119.50333 1593 ft 157 kts 31°
2026-04-28 11:49 -5.15348 119.50873 1391 ft 154 kts 31°
2026-04-28 11:49 -5.14420 119.51408 1200 ft 153 kts 31°
2026-04-28 11:50 -5.13503 119.51937 999 ft 153 kts 31°
2026-04-28 11:50 -5.12580 119.52469 812 ft 152 kts 31°
2026-04-28 11:50 -5.11671 119.52993 636 ft 150 kts 31°
2026-04-28 11:50 -5.10774 119.53510 429 ft 148 kts 31°
2026-04-28 11:51 -5.09893 119.54020 215 ft 146 kts 32°
2026-04-28 11:51 -5.09018 119.54524 64 ft 146 kts 31°
2026-04-28 11:51 -5.08235 119.54985 39 ft 111 kts 30°
2026-04-28 11:51 -5.07713 119.55281 42 ft 64 kts 28°
2026-04-28 11:52 -5.07356 119.55485 39 ft 45 kts 30°
2026-04-28 11:52 -5.07094 119.55636 38 ft 41 kts 30°
2026-04-28 11:52 -5.06857 119.55774 41 ft 38 kts 30°
2026-04-28 11:52 -5.06715 119.55788 41 ft 17 kts 319°
2026-04-28 11:53 -5.06676 119.55687 41 ft 15 kts 246°
2026-04-28 11:53 -5.06751 119.55629 41 ft 13 kts 210°
2026-04-28 11:53 -5.06828 119.55584 41 ft 15 kts 210°
2026-04-28 11:53 -5.06937 119.55521 41 ft 20 kts 210°
2026-04-28 11:54 -5.07063 119.55449 41 ft 22 kts 210°
2026-04-28 11:54 -5.07200 119.55370 41 ft 24 kts 210°
2026-04-28 11:54 -5.07350 119.55282 41 ft 26 kts 210°
2026-04-28 11:54 -5.07500 119.55197 41 ft 26 kts 209°
2026-04-28 11:55 -5.07591 119.55144 41 ft 16 kts 215°
2026-04-28 11:55 -5.07583 119.55022 40 ft 13 kts 291°
2026-04-28 11:55 -5.07585 119.54975 41 ft 5 kts 258°
2026-04-28 11:55 -5.07595 119.54932 41 ft 9 kts 250°
2026-04-28 11:56 -5.07656 119.54882 41 ft 15 kts 210°
2026-04-28 11:56 -5.07742 119.54831 41 ft 13 kts 210°
2026-04-28 11:56 -5.07783 119.54791 41 ft 6 kts 268°
2026-04-28 11:56 -5.07767 119.54754 40 ft 6 kts 300°
2026-04-28 11:57 -5.07758 119.54739 41 ft 0 kts 300°